Thermopolis, WY

6:40 PM MDT on March 28, 2017 (GMT -0600)
Thermopolis

Weather History for KTBX - September, 2013

Change the Weather History Date:

Monday, September 30, 2013

  Actual Average (KRIW) Record (KRIW)
Temperature  
Mean Temperature 50 °F -  
Max Temperature 59 °F 70 °F 81 °F (2005)
Min Temperature 42 °F 33 °F 32 °F (2009)
Degree Days  
Heating Degree Days 14    
Moisture  
Dew Point 32 °F    
Average Humidity 49    
Maximum Humidity 70    
Minimum Humidity 31    
Precipitation  
Precipitation 0.00 in - - ()
Sea Level Pressure  
Sea Level Pressure 29.96 in    
Wind  
Wind Speed 20 mph (South)    
Max Wind Speed 33 mph    
Max Gust Speed 48 mph    
Visibility 10 miles    
Events      
Averages and records for this station are not official NWS values.
T = Trace of Precipitation, MM = Missing Value Source: NWS Daily Summary

Daily Weather History Graph

Daily Weather History Graph

Search for Another Location

Airport or City:

Trip Planner

Search our weather history database for the weather conditions in past years. The results will help you decide how hot, cold, wet, or windy it might be!

Date:

Astronomy

Sep. 30, 2013 Rise Set
Actual Time 7:09 AM MDT 6:55 PM MDT
Civil Twilight 6:41 AM MDT 7:23 PM MDT
Nautical Twilight 6:07 AM MDT 7:56 PM MDT
Astronomical Twilight 5:34 AM MDT 8:30 PM MDT
Moon 2:42 AM MDT (9/30) 4:33 PM MDT (9/30)
Length of Visible Light 12h 42m
Length of Day
11h 45m
Waning Crescent, 18% of the Moon is Illuminated
Sep 30
Waning Crescent
Oct 4
New
Oct 11
First Quarter
Oct 18
Full
Oct 26
Last Quarter

Hourly Weather History & Observations

Time (MDT) Temp. Windchill Dew Point Humidity Pressure Visibility Wind Dir Wind Speed Gust Speed Precip Events Conditions
12:15 AM 42.8 °F 37.0 °F 33.8 °F 70% 30.00 in 10.0 mi SSE 10.4 mph - N/A   Clear
12:35 AM 42.8 °F 36.6 °F 33.8 °F 70% 29.99 in 10.0 mi SE 11.5 mph - N/A   Clear
12:55 AM 42.8 °F 36.6 °F 32.0 °F 66% 29.98 in 10.0 mi SE 11.5 mph - N/A   Clear
1:15 AM 44.6 °F 37.4 °F 32.0 °F 61% 29.97 in 10.0 mi SSE 16.1 mph - N/A   Clear
1:35 AM 42.8 °F 34.5 °F 32.0 °F 66% 29.96 in 10.0 mi SE 18.4 mph - N/A   Clear
1:55 AM 42.8 °F 35.1 °F 32.0 °F 66% 29.97 in 10.0 mi SE 16.1 mph 23.0 mph N/A   Clear
2:15 AM 42.8 °F 35.4 °F 32.0 °F 66% 29.96 in 10.0 mi SSE 15.0 mph 23.0 mph N/A   Clear
2:35 AM 46.4 °F 38.3 °F 32.0 °F 57% 29.95 in 10.0 mi SSE 23.0 mph 28.8 mph N/A   Clear
2:55 AM 48.2 °F - 30.2 °F 50% 29.93 in 10.0 mi SSE 28.8 mph 33.4 mph N/A   Clear
3:15 AM 48.2 °F - 30.2 °F 50% 29.93 in 10.0 mi SSE 26.5 mph 31.1 mph N/A   Clear
3:35 AM 46.4 °F 38.7 °F 32.0 °F 57% 29.94 in 10.0 mi SSE 20.7 mph 31.1 mph N/A   Clear
3:55 AM 46.4 °F 38.5 °F 32.0 °F 57% 29.94 in 10.0 mi South 21.9 mph 26.5 mph N/A   Clear
4:15 AM 46.4 °F 39.5 °F 32.0 °F 57% 29.95 in 10.0 mi South 17.3 mph - N/A   Clear
4:35 AM 46.4 °F 39.5 °F 32.0 °F 57% 29.94 in 10.0 mi South 17.3 mph - N/A   Clear
4:55 AM 48.2 °F - 32.0 °F 54% 29.93 in 10.0 mi South 21.9 mph - N/A   Clear
5:15 AM 48.2 °F - 32.0 °F 54% 29.91 in 10.0 mi SSE 19.6 mph 26.5 mph N/A   Clear
5:35 AM 48.2 °F - 32.0 °F 54% 29.91 in 10.0 mi SSE 23.0 mph 29.9 mph N/A   Clear
5:55 AM 50.0 °F - 32.0 °F 50% 29.91 in 10.0 mi SSE 27.6 mph 35.7 mph N/A   Clear
6:15 AM 46.4 °F 38.3 °F 32.0 °F 57% 29.91 in 10.0 mi SSE 23.0 mph 33.4 mph N/A   Clear
6:35 AM 46.4 °F 39.0 °F 32.0 °F 57% 29.92 in 10.0 mi SSE 19.6 mph 31.1 mph N/A   Clear
6:55 AM 48.2 °F - 32.0 °F 54% 29.92 in 10.0 mi South 19.6 mph 28.8 mph N/A   Scattered Clouds
7:15 AM 48.2 °F - 32.0 °F 54% 29.89 in 10.0 mi SSE 33.4 mph - N/A   Mostly Cloudy
7:35 AM 48.2 °F - 32.0 °F 54% 29.89 in 10.0 mi SSE 33.4 mph 39.1 mph N/A   Scattered Clouds
7:55 AM 50.0 °F - 33.8 °F 54% 29.90 in 10.0 mi SSE 25.3 mph 36.8 mph N/A   Scattered Clouds
8:15 AM 50.0 °F - 33.8 °F 54% 29.90 in 10.0 mi SSE 31.1 mph 35.7 mph N/A   Clear
8:35 AM 50.0 °F - 33.8 °F 54% 29.91 in 10.0 mi SSE 24.2 mph 35.7 mph N/A   Clear
8:55 AM 50.0 °F - 33.8 °F 54% 29.90 in 10.0 mi SSE 20.7 mph 34.5 mph N/A   Clear
9:15 AM 48.2 °F - 33.8 °F 58% 29.91 in 10.0 mi SSE 18.4 mph 25.3 mph N/A   Clear
9:35 AM 50.0 °F - 35.6 °F 58% 29.91 in 10.0 mi SSE 18.4 mph 25.3 mph N/A   Clear
9:55 AM 51.8 °F - 35.6 °F 54% 29.91 in 10.0 mi SSE 17.3 mph 25.3 mph N/A   Clear
10:15 AM 51.8 °F - 35.6 °F 54% 29.92 in 10.0 mi SSE 18.4 mph 24.2 mph N/A   Clear
10:35 AM 51.8 °F - 35.6 °F 54% 29.92 in 10.0 mi SSE 19.6 mph 33.4 mph N/A   Clear
10:55 AM 51.8 °F - 35.6 °F 54% 29.91 in 10.0 mi SSE 17.3 mph 26.5 mph N/A   Clear
11:15 AM 51.8 °F - 35.6 °F 54% 29.92 in 10.0 mi SE 19.6 mph 26.5 mph N/A   Clear
11:35 AM 53.6 °F - 35.6 °F 51% 29.91 in 10.0 mi SE 16.1 mph 26.5 mph N/A   Clear
11:55 AM 53.6 °F - 37.4 °F 54% 29.92 in 10.0 mi SSE 15.0 mph 31.1 mph N/A   Clear
12:15 PM 55.4 °F - 35.6 °F 47% 29.90 in 10.0 mi SSE 24.2 mph 38.0 mph N/A   Clear
12:35 PM 57.2 °F - 35.6 °F 44% 29.89 in 10.0 mi SSE 28.8 mph 40.3 mph N/A   Clear
12:55 PM 57.2 °F - 33.8 °F 41% 29.90 in 10.0 mi South 27.6 mph 38.0 mph N/A   Clear
1:15 PM 59.0 °F - 33.8 °F 39% 29.91 in 10.0 mi SSE 25.3 mph 38.0 mph N/A   Scattered Clouds
1:35 PM 57.2 °F - 32.0 °F 38% 29.90 in 10.0 mi South 27.6 mph 48.3 mph N/A   Clear
1:55 PM 59.0 °F - 33.8 °F 39% 29.91 in 10.0 mi South 31.1 mph 42.6 mph N/A   Mostly Cloudy
2:15 PM 57.2 °F - 32.0 °F 38% 29.91 in 10.0 mi South 29.9 mph 40.3 mph N/A   Mostly Cloudy
2:35 PM 59.0 °F - 33.8 °F 39% 29.93 in 10.0 mi SSW 19.6 mph 32.2 mph N/A   Mostly Cloudy
2:55 PM 57.2 °F - 33.8 °F 41% 29.93 in 10.0 mi South 20.7 mph 32.2 mph N/A   Mostly Cloudy
3:15 PM 59.0 °F - 32.0 °F 36% 29.93 in 10.0 mi South 20.7 mph 34.5 mph N/A   Mostly Cloudy
3:35 PM 59.0 °F - 32.0 °F 36% 29.93 in 10.0 mi SSE 15.0 mph 29.9 mph N/A   Overcast
3:55 PM 59.0 °F - 32.0 °F 36% 29.93 in 10.0 mi South 18.4 mph 23.0 mph N/A   Overcast
4:15 PM 59.0 °F - 32.0 °F 36% 29.95 in 10.0 mi South 16.1 mph 25.3 mph N/A   Overcast
4:35 PM 59.0 °F - 30.2 °F 34% 29.95 in 10.0 mi South 19.6 mph 28.8 mph N/A   Overcast
4:55 PM 59.0 °F - 30.2 °F 34% 29.96 in 10.0 mi SSW 20.7 mph 26.5 mph N/A   Overcast
5:15 PM 59.0 °F - 28.4 °F 31% 29.96 in 10.0 mi SSW 19.6 mph 33.4 mph N/A   Scattered Clouds
5:35 PM 59.0 °F - 28.4 °F 31% 29.97 in 10.0 mi WSW 23.0 mph 34.5 mph N/A   Mostly Cloudy
5:55 PM 59.0 °F - 28.4 °F 31% 29.98 in 10.0 mi WSW 24.2 mph 32.2 mph N/A   Mostly Cloudy
6:15 PM 55.4 °F - 28.4 °F 36% 29.98 in 10.0 mi WSW 26.5 mph 36.8 mph N/A   Scattered Clouds
6:35 PM 55.4 °F - 30.2 °F 38% 29.99 in 10.0 mi WSW 19.6 mph 27.6 mph N/A   Clear
6:55 PM 53.6 °F - 32.0 °F 44% 30.00 in 10.0 mi WSW 19.6 mph - N/A   Clear
7:15 PM 51.8 °F - 32.0 °F 47% 30.00 in 10.0 mi WSW 17.3 mph - N/A   Clear
7:35 PM 51.8 °F - 32.0 °F 47% 30.01 in 10.0 mi WSW 19.6 mph 24.2 mph N/A   Clear
7:55 PM 51.8 °F - 32.0 °F 47% 30.02 in 10.0 mi West 20.7 mph - N/A   Clear
8:15 PM 51.8 °F - 32.0 °F 47% 30.03 in 10.0 mi WSW 23.0 mph 29.9 mph N/A   Clear
8:35 PM 51.8 °F - 32.0 °F 47% 30.03 in 10.0 mi WSW 24.2 mph 29.9 mph N/A   Clear
8:55 PM 51.8 °F - 32.0 °F 47% 30.04 in 10.0 mi WSW 29.9 mph 33.4 mph N/A   Clear
9:15 PM 51.8 °F - 32.0 °F 47% 30.05 in 10.0 mi WSW 33.4 mph 46.0 mph N/A   Clear
9:35 PM 51.8 °F - 30.2 °F 44% 30.06 in 10.0 mi WSW 28.8 mph 40.3 mph N/A   Clear
9:55 PM 50.0 °F - 30.2 °F 47% 30.06 in 10.0 mi WSW 33.4 mph 41.4 mph N/A   Clear
10:15 PM 50.0 °F - 28.4 °F 43% 30.06 in 10.0 mi WSW 29.9 mph 40.3 mph N/A   Clear
10:35 PM 50.0 °F - 28.4 °F 43% 30.08 in 10.0 mi WSW 26.5 mph 39.1 mph N/A   Clear
10:55 PM 50.0 °F - 28.4 °F 43% 30.08 in 10.0 mi WSW 26.5 mph 39.1 mph N/A   Clear
11:15 PM 50.0 °F - 28.4 °F 43% 30.08 in 10.0 mi WSW 32.2 mph 40.3 mph N/A   Clear
11:35 PM 48.2 °F - 30.2 °F 50% 30.09 in 10.0 mi WSW 27.6 mph 35.7 mph N/A   Clear
11:55 PM 48.2 °F - 30.2 °F 50% 30.08 in 10.0 mi WSW 31.1 mph 35.7 mph N/A   Clear